Home   Weather   Chittorgarh   Past weeks
Flag for India

Past Weather in Chittorgarh, Rajasthan, India — Yesterday and Last 2 Weeks

Now
82 °F

Passing clouds.


Feels Like: 87 °F
Forecast: 86 / 73 °F
Wind: 3 mph from North

Location: Jaipur / Sanganer

Current Time: Sep 18, 2019 at 9:16:09 pm

Latest Report: Sep 18, 2019 at 8:30 pm


Visibility: 2 mi

Pressure: 29.83 "Hg (28.11 "Hg at 524m altitude)

Humidity: 70%

Dew Point: 72 °F

Location of ChittorgarhLocation

Past Weather in Chittorgarh — Graph

°F

Chittorgarh Temperature Yesterday

Maximum temperature yesterday: 97 °F (at 2:30 pm)
Minimum temperature yesterday: 73 °F (at 10:00 pm)
Average temperature yesterday: 86 °F

High & Low Weather Summary for the Past Weeks

 TemperatureHumidityPressure
High99 °F (Sep 10, 1:30 pm)100% (Sep 6, 1:30 pm)29.86 "Hg (Sep 6, 1:30 pm)
Low73 °F (Sep 17, 10:00 pm)39% (Sep 9, 3:00 pm)29.50 "Hg (Sep 4, 3:00 pm)
Average87 °F75%29.64 "Hg
* Reported Sep 3 7:30 pm — Sep 18 8:00 pm, Chittorgarh. Weather by CustomWeather, © 2019

Note: Actual official high and low records may vary slightly from our data, if they occured in-between our weather recording intervals... More about our weather records

Advertising

Chittorgarh Weather History for the Previous 24 Hours

Scroll right to see more
 ConditionsComfort  
Time TempWeatherWind HumidityBarometerVisibility
8:00 pm
Wed, Sep 18
81 °FHaze.No wind74%29.83 "Hg2 mi
7:30 pm81 °FHaze.2 mph74%29.80 "Hg2 mi
7:00 pm81 °FPassing clouds.5 mph70%29.80 "Hg2 mi
6:00 pm81 °FScattered clouds.8 mph70%29.77 "Hg2 mi
5:30 pm82 °FScattered clouds.10 mph70%29.77 "Hg2 mi
5:00 pm86 °FScattered clouds.8 mph55%29.77 "Hg3 mi
4:30 pm88 °FScattered clouds.14 mph46%29.77 "Hg3 mi
4:00 pm88 °FScattered clouds.6 mph49%29.77 "Hg3 mi
3:30 pm88 °FScattered clouds.9 mph52%29.77 "Hg3 mi
3:00 pm93 °FScattered clouds.6 mph53%29.77 "Hg3 mi
2:30 pm93 °FScattered clouds.8 mph56%29.77 "Hg3 mi
2:00 pm93 °FScattered clouds.2 mph56%29.80 "Hg2 mi
1:30 pm93 °FScattered clouds.6 mph59%29.80 "Hg2 mi
1:00 pm91 °FScattered clouds.6 mph63%29.83 "Hg2 mi
12:30 pm93 °FScattered clouds.3 mph59%29.83 "Hg2 mi
12:00 pm91 °FScattered clouds.3 mph63%29.83 "Hg2 mi
11:30 am90 °FScattered clouds.5 mph63%29.83 "Hg2 mi
11:00 am90 °FScattered clouds.6 mph63%29.86 "Hg2 mi
10:30 am91 °FScattered clouds.5 mph63%29.86 "Hg2 mi
10:00 am88 °FScattered clouds.3 mph66%29.86 "Hg2 mi
9:30 am88 °FScattered clouds.5 mph66%29.86 "Hg2 mi
9:00 am84 °FScattered clouds.6 mph70%29.86 "Hg2 mi
8:30 am84 °FScattered clouds.5 mph70%29.83 "Hg1 mi
8:00 am84 °FScattered clouds.8 mph74%29.83 "Hg1 mi
7:30 am82 °FFog.No wind79%29.80 "Hg1 mi
7:00 am82 °FFog.No wind79%29.80 "Hg1 mi
6:30 am81 °FFog.No wind79%29.77 "Hg1 mi
6:00 am81 °FFog.No wind84%29.77 "Hg1 mi
5:30 am81 °FFog.No wind84%29.77 "Hg1 mi
5:00 am81 °FFog.2 mph79%29.74 "Hg1 mi
4:30 am81 °FFog.No wind79%29.74 "Hg1 mi
4:00 am79 °FFog.No wind79%29.74 "Hg1 mi
3:30 am79 °FFog.No wind84%29.74 "Hg1 mi
3:00 am81 °FFog.No wind79%29.74 "Hg1 mi
2:30 am79 °FFog.2 mph84%29.74 "Hg1 mi
2:00 am81 °FFog.No wind79%29.74 "Hg1 mi
1:00 am81 °FFog.2 mph74%29.74 "Hg1 mi
12:30 am81 °FFog.3 mph74%29.74 "Hg1 mi
12:00 am79 °FFog.No wind79%29.74 "Hg1 mi
11:30 pm
Tue, Sep 17
79 °FFog.No wind79%29.74 "Hg1 mi
11:00 pm77 °FFog.2 mph83%29.74 "Hg1 mi
10:30 pm77 °FFog.6 mph74%29.74 "Hg1 mi
10:00 pm73 °FThunderstorms. Partly cloudy.6 mph83%29.74 "Hg1 mi
9:30 pm75 °FThunderstorms. Partly cloudy.17 mph100%29.77 "Hg1 mi
9:00 pm86 °FPassing clouds.8 mph52%29.77 "Hg2 mi
Weather by CustomWeather, © 2019

See weather overview